STARLINK-35634 (66173 NORAD) Tracking and Keplerian Element Data

This shows tracking and keplerian element data for the satellite.

Feedback or suggestion? Click here.




ElementValue
Catalog66173
NameSTARLINK-35634
Epoch Orbit982
Epoch Day354.21996043
Epoch Year2025
RAAN71.7583
Inclination53.1621
Eccentricity0.0001257
Argument of Perigee85.9179
Mean Anonmoly274.1966
Mean Motion15.30194975
Decay Rate0.00027906
L11 66173U 25240AD 25354.21996043 .00027906 00000+0 95091-3 0 9999
L22 66173 53.1621 71.7583 0001257 85.9179 274.1966 15.30194975 9826



Live tracking and technical data element details for STARLINK-35634 (NORAD 66173). STARLINK-35634 can be tracked NOW for your location showing map with azimuth and elevation plus other details from your city location.







IsCatalogInMostPopularTable: catalog: 66173, numindb: 7
Update: records affected: 1



GetName: 66173 STARLINK-35634

Hit Count: updated at: Tue, 21 Apr 2026 19:46:04 GMT